Weather History for KLWD - November, 2012

Change the Weather History Date:

Monday, November 26, 2012

  Actual Average Record
Temperature  
Mean Temperature 25 °F 34 °F  
Max Temperature 34 °F 43 °F 73 °F (1990)
Min Temperature 15 °F 25 °F 7 °F (1993)
Degree Days  
Heating Degree Days 40 31  
Month to date heating degree days 543 635  
Since 1 July heating degree days 1078 1119  
Cooling Degree Days 0 0  
Month to date cooling degree days 1 0  
Year to date cooling degree days 1312 946  
Moisture  
Dew Point 16 °F    
Average Humidity 68    
Maximum Humidity 85    
Minimum Humidity 51    
Precipitation  
Precipitation 0.00 in 0.05 in 0.75 in (1975)
Month to date precipitation 1.65 1.98  
Sea Level Pressure  
Sea Level Pressure 30.35 in    
Wind  
Wind Speed 10 mph (North)    
Max Wind Speed 18 mph    
Max Gust Speed 24 mph    
Visibility 10 miles    
Events      
T = Trace of Precipitation, MM = Missing Value Source: NWS Daily Summary

Daily Weather History Graph

Daily Weather History Graph

Search for Another Location

Airport or City:

Trip Planner

Search our weather history database for the weather conditions in past years. The results will help you decide how hot, cold, wet, or windy it might be!

Date:

Astronomy

Nov. 26, 2012 Rise Set
Actual Time 7:15 AM CST 4:50 PM CST
Civil Twilight 6:45 AM CST 5:20 PM CST
Nautical Twilight 6:11 AM CST 5:54 PM CST
Astronomical Twilight 5:38 AM CST 6:27 PM CST
Moon 3:43 PM CST (11/26) 5:25 AM CST (11/26)
Length of Visible Light 10h 35m
Length of Day
9h 35m
Waxing Gibbous, 97% of the Moon is Illuminated
Nov 26
Waxing Gibbous
Nov 28
Full
Dec 6
Last Quarter
Dec 13
New
Dec 19
First Quarter

Hourly Weather History & Observations

Time (CST) Temp. Windchill Dew Point Humidity Pressure Visibility Wind Dir Wind Speed Gust Speed Precip Events Conditions
12:53 AM 30.0 °F 24.1 °F 24.1 °F 79% 30.15 in 10.0 mi North 5.8 mph - N/A   Clear
2:53 AM 30.9 °F 22.2 °F 24.1 °F 76% 30.18 in 10.0 mi NNE 10.4 mph - N/A   Clear
3:53 AM 30.9 °F 21.2 °F 21.9 °F 69% 30.19 in 10.0 mi NNE 12.7 mph - N/A   Mostly Cloudy
4:53 AM 30.9 °F 20.7 °F 21.0 °F 67% 30.21 in 10.0 mi NE 13.8 mph - N/A   Overcast
5:53 AM 30.9 °F 21.7 °F 21.0 °F 67% 30.22 in 10.0 mi NE 11.5 mph - N/A   Overcast
6:53 AM 30.9 °F 22.8 °F 21.0 °F 67% 30.25 in 10.0 mi NE 9.2 mph - N/A   Scattered Clouds
7:53 AM 30.9 °F 19.8 °F 21.0 °F 67% 30.27 in 10.0 mi NE 16.1 mph 24.2 mph N/A   Overcast
8:53 AM 30.9 °F 22.2 °F 21.0 °F 67% 30.32 in 10.0 mi NNE 10.4 mph 21.9 mph N/A   Overcast
9:53 AM 32.0 °F 21.6 °F 19.9 °F 61% 30.34 in 10.0 mi NNE 15.0 mph 21.9 mph N/A   Overcast
10:53 AM 32.0 °F 21.2 °F 19.0 °F 59% 30.38 in 10.0 mi North 16.1 mph 23.0 mph N/A   Overcast
11:53 AM 33.1 °F 25.5 °F 19.0 °F 56% 30.38 in 10.0 mi North 9.2 mph - N/A   Overcast
12:53 PM 32.0 °F 22.5 °F 17.1 °F 54% 30.39 in 10.0 mi North 12.7 mph - N/A   Overcast
1:53 PM 33.1 °F 24.9 °F 18.0 °F 54% 30.39 in 10.0 mi North 10.4 mph - N/A   Overcast
2:53 PM 30.9 °F 21.2 °F 17.1 °F 57% 30.39 in 10.0 mi North 12.7 mph - N/A   Overcast
3:53 PM 28.9 °F 19.8 °F 16.0 °F 58% 30.40 in 10.0 mi North 10.4 mph - N/A   Mostly Cloudy
4:53 PM 26.1 °F 16.8 °F 12.9 °F 58% 30.42 in 10.0 mi North 9.2 mph - N/A   Clear
5:53 PM 23.0 °F 13.1 °F 10.9 °F 60% 30.43 in 10.0 mi North 9.2 mph - N/A   Clear
6:53 PM 19.9 °F 12.1 °F 9.0 °F 62% 30.45 in 10.0 mi North 5.8 mph - N/A   Clear
7:53 PM 19.0 °F 9.0 °F 8.1 °F 62% 30.47 in 10.0 mi North 8.1 mph - N/A   Clear
8:53 PM 18.0 °F 11.1 °F 7.0 °F 62% 30.47 in 10.0 mi North 4.6 mph - N/A   Clear
9:53 PM 16.0 °F 7.4 °F 7.0 °F 68% 30.48 in 10.0 mi North 5.8 mph - N/A   Clear
10:53 PM 15.1 °F 6.4 °F 7.0 °F 70% 30.49 in 10.0 mi North 5.8 mph - N/A   Clear
11:53 PM 15.1 °F 7.7 °F 6.1 °F 68% 30.48 in 10.0 mi North 4.6 mph - N/A   Clear